Wind_Speed
20 20 21 21 21 21 21 20 20 21 21 21 21 20 19 18 17 16 15 15 14 14 13 12 11 11 10 10 10 10 10 10 11 11 11 11 12 12 12 12 13 13 14
21 21 22 22 23 23 23 23 23 23 23 23 23 22 22 21 20 19 18 17 17 16 15 14 13 12 12 11 11 11 11 11 11 12 12 13 13 13 13 13 14 14 14
22 23 23 24 24 24 24 25 25 25 25 25 25 25 24 24 23 22 21 20 19 19 17 16 15 15 14 13 13 12 12 12 13 13 13 14 14 14 14 15 15 15 15
24 25 25 25 26 26 26 26 27 27 27 27 27 27 26 26 26 25 24 23 22 21 20 19 18 17 16 15 15 14 14 13 14 14 14 14 15 15 15 16 16 16 16
27 27 27 28 28 28 28 28 28 29 29 29 29 29 28 28 28 27 26 25 24 23 22 21 20 19 18 17 17 16 15 15 15 15 15 15 15 16 16 17 17 17 17
29 29 30 30 30 31 31 31 30 30 31 31 31 31 30 30 30 29 29 28 27 25 24 23 22 21 20 19 18 18 17 17 17 16 16 16 17 17 17 17 18 18 18
32 32 32 32 33 33 33 33 33 33 33 33 33 33 32 32 32 31 31 30 29 28 26 25 24 23 22 21 20 19 19 18 18 17 17 18 18 18 18 18 18 18 19
35 35 35 35 35 36 36 36 36 36 35 35 35 35 34 34 34 33 33 32 31 30 29 27 26 25 24 23 22 21 20 20 19 18 18 19 19 19 19 19 19 19 19
38 38 38 38 38 38 38 39 39 39 39 38 37 37 37 36 36 36 35 34 33 31 30 29 28 27 25 25 23 22 22 21 20 20 19 20 20 20 20 19 19 19 20
41 41 40 40 40 40 41 41 41 41 41 40 40 39 38 38 38 38 37 36 35 33 32 31 29 28 27 26 25 24 23 22 22 21 21 21 21 21 21 20 20 20 20
45 45 44 44 43 42 43 44 43 43 44 43 43 42 41 40 40 40 39 38 37 35 34 33 31 30 29 28 26 26 25 24 23 22 22 22 22 22 21 21 21 21 21
47 48 48 47 46 45 45 46 46 45 45 46 46 45 44 43 42 41 41 40 39 37 36 34 33 32 30 29 28 27 26 25 24 24 23 23 22 22 22 22 22 22 22
49 50 51 51 50 49 48 48 48 47 47 47 48 47 47 45 44 43 42 41 40 39 37 36 35 33 32 31 30 28 28 26 25 25 24 24 23 23 23 23 23 23 23
52 53 54 53 53 52 51 51 51 50 49 49 50 49 49 48 46 45 43 42 41 40 39 38 36 35 34 32 31 30 29 28 27 26 25 25 24 24 24 24 24 24 24
54 55 56 56 55 55 54 54 53 53 52 51 52 51 51 50 49 48 46 44 43 42 40 39 38 37 36 34 32 31 30 29 28 27 26 26 25 25 25 25 25 25 25
54 55 56 56 57 57 57 56 55 54 54 54 53 54 53 52 50 49 48 46 45 43 42 41 39 38 37 36 34 32 31 30 29 28 27 27 26 26 26 26 26 26 27
53 53 56 57 57 58 58 57 57 56 56 56 55 56 55 55 53 50 49 49 47 45 44 42 41 39 38 37 35 34 33 31 30 29 28 28 27 27 27 27 27 27 27
53 53 55 57 57 58 59 59 58 57 58 58 58 57 57 56 55 52 51 50 49 48 46 44 42 41 39 38 36 35 34 33 31 30 29 29 28 28 28 28 28 28 28
52 52 54 56 57 58 60 60 59 58 59 59 59 59 58 57 56 55 53 50 50 50 47 46 44 42 41 39 38 37 35 34 33 31 31 30 30 29 29 29 29 29 30
50 52 52 53 55 56 58 59 59 59 59 60 60 60 59 59 57 56 54 51 51 50 49 48 46 44 42 41 40 38 36 35 34 33 32 32 31 30 30 30 30 31 31
49 51 51 52 54 55 56 57 59 59 59 60 61 62 61 60 59 58 56 54 53 51 50 50 48 46 44 43 41 39 38 36 35 34 33 33 32 31 31 31 31 32 32
47 48 50 50 51 53 54 55 57 58 58 59 61 62 62 61 60 59 57 56 54 51 51 51 50 48 46 44 42 40 39 38 36 35 34 34 33 33 32 32 33 33 33
44 45 46 48 49 51 53 54 56 58 59 59 61 62 63 63 61 60 58 56 55 52 51 52 51 49 48 45 43 41 40 39 37 36 35 34 34 34 33 33 33 34 35
42 43 44 46 47 49 51 53 54 56 57 58 60 62 62 63 62 60 58 57 55 53 52 52 51 50 49 47 45 43 41 39 38 37 36 35 34 34 34 34 35 35 35
40 40 42 43 44 46 48 50 51 53 54 55 58 59 60 61 63 61 59 57 56 54 53 53 53 51 49 47 45 43 41 40 39 37 36 36 35 35 34 35 35 36 36
38 39 40 42 44 44 47 48 51 52 53 55 56 57 57 59 61 60 58 56 55 54 54 54 53 51 48 47 46 44 42 40 38 37 37 36 36 35 35 35 35 36 36
Wind_Direction
249 247 245 244 244 244 244 244 244 244 244 245 246 246 245 245 246 247 249 250 251 253 255 257 259 264 268 272 280 286 293 299 300 302 308 312 314 317 320 321 323 324 325
252 249 248 246 246 246 246 245 245 245 245 246 246 246 246 246 247 248 249 251 252 254 256 258 261 264 265 270 276 284 289 294 295 298 304 308 310 313 316 317 319 320 321
252 251 250 248 247 248 248 247 247 247 247 247 246 246 246 247 247 248 249 251 252 254 256 259 262 264 265 269 274 279 285 291 292 294 300 305 308 310 311 314 315 317 318
254 253 252 251 249 248 249 249 248 248 248 248 247 246 246 247 248 249 250 251 252 253 255 257 260 263 265 269 272 276 282 288 290 292 296 302 305 307 308 311 312 313 314
255 254 254 253 251 249 249 249 249 248 248 248 248 247 246 247 248 249 250 251 251 252 254 256 258 261 263 267 270 274 280 285 288 290 294 299 303 305 306 309 310 310 311
256 255 255 254 253 251 250 249 250 249 249 248 248 247 247 247 248 249 250 251 251 252 253 254 256 259 261 264 268 272 278 283 286 288 291 296 300 305 306 307 307 308 310
258 256 255 254 254 252 250 249 249 250 250 249 248 248 248 248 248 249 249 250 251 251 252 254 255 257 259 262 266 270 274 279 283 285 288 293 298 302 305 306 306 307 309
259 258 255 254 254 253 251 250 250 250 250 249 248 248 248 248 248 249 249 249 250 251 251 253 255 257 257 260 264 268 271 275 279 283 287 290 295 299 302 304 305 306 308
259 258 257 255 254 253 253 251 250 249 249 249 249 248 247 248 248 249 249 249 249 250 251 252 254 256 257 259 262 266 269 272 276 281 285 288 292 296 299 302 303 305 305
260 258 257 256 255 254 253 252 250 249 249 249 249 248 248 248 248 249 249 248 248 249 250 251 252 255 256 258 261 264 267 270 274 279 283 286 289 293 296 299 301 302 303
260 259 257 256 255 254 253 252 251 249 248 247 247 247 247 248 248 248 248 248 247 248 249 250 251 253 255 257 259 262 264 268 272 277 281 284 287 291 293 296 298 300 301
260 259 258 257 255 253 252 252 251 249 248 247 246 246 246 246 247 248 248 248 247 247 248 250 251 252 254 256 258 260 262 265 269 274 278 282 285 288 291 294 296 297 299
259 258 258 256 255 253 251 250 250 248 247 247 246 245 245 244 246 246 246 247 247 248 249 250 251 252 253 254 256 258 261 263 267 271 275 279 283 286 289 291 293 295 297
259 257 256 255 254 252 250 249 248 247 245 244 245 243 243 243 244 245 245 245 246 247 248 249 250 251 252 253 255 256 259 262 265 269 272 276 280 284 287 290 291 293 295
259 256 254 253 253 251 250 248 247 246 244 243 243 241 241 241 242 243 244 244 245 245 246 247 248 250 251 252 253 254 257 260 263 266 270 274 277 282 286 288 290 291 294
259 255 252 251 251 250 249 247 246 245 244 242 241 240 239 239 240 242 242 243 244 244 244 245 247 248 249 250 252 253 255 258 261 264 268 272 276 280 284 287 289 291 294
259 256 252 251 250 249 248 246 245 244 242 241 239 238 238 238 239 240 241 242 242 242 242 244 245 247 248 249 250 252 253 256 258 262 266 270 274 278 282 286 288 291 293
260 257 253 250 249 248 246 245 243 242 241 239 238 237 236 237 237 238 239 240 240 240 240 242 243 245 246 247 249 250 251 254 256 260 265 268 272 276 280 284 286 289 292
261 257 253 249 248 246 245 244 241 240 239 237 236 236 234 235 236 237 238 239 239 238 239 241 242 243 244 245 247 248 249 252 255 259 263 266 270 275 279 282 285 288 291
262 258 253 249 246 245 244 242 240 239 237 236 235 233 232 233 233 234 235 237 238 238 238 240 241 242 243 244 245 246 248 251 254 258 261 265 269 273 277 280 284 287 291
260 258 254 250 246 244 242 241 239 237 236 235 233 232 232 231 231 232 233 234 236 237 239 240 241 242 243 243 244 245 248 251 253 257 261 265 269 273 276 280 284 287 290
261 258 254 250 245 243 241 240 238 237 236 234 233 231 231 230 230 231 232 232 233 235 237 238 239 240 242 243 244 246 248 250 253 256 259 263 268 271 275 279 283 286 289
261 258 254 249 244 242 241 239 238 236 234 233 231 230 230 230 229 230 230 230 231 234 236 237 238 239 241 243 244 245 247 250 252 255 259 263 267 271 274 278 282 286 289
262 257 253 248 244 241 241 238 237 235 233 233 231 230 230 230 229 229 229 230 231 232 234 236 238 238 240 242 243 245 246 249 251 254 258 262 266 270 273 277 281 285 288
263 256 252 247 242 241 239 238 236 234 232 231 230 228 229 230 229 228 228 228 230 231 233 235 236 238 239 240 242 244 246 247 250 253 257 262 266 269 272 277 281 285 288
263 256 253 248 243 241 240 239 236 233 232 231 229 227 227 228 227 227 227 227 228 231 233 234 236 236 237 238 240 243 245 246 249 252 257 261 265 268 272 276 281 285 288
Height
5850 5851 5852 5853 5854 5856 5857 5858 5859 5860 5862 5863 5864 5865 5867 5868 5869 5869 5870 5871 5871 5871 5872 5872 5872 5872 5872 5872 5871 5871 5871 5870 5869 5868 5867 5866 5865 5864 5862 5861 5859 5857 5856
5846 5847 5848 5850 5851 5852 5853 5855 5856 5857 5859 5860 5861 5862 5864 5865 5866 5867 5868 5868 5869 5869 5870 5870 5870 5870 5870 5870 5870 5870 5869 5869 5868 5867 5866 5865 5863 5862 5861 5859 5858 5856 5854
5842 5843 5844 5845 5847 5848 5849 5851 5852 5853 5855 5856 5857 5859 5860 5861 5863 5864 5865 5866 5866 5867 5867 5868 5868 5868 5868 5868 5868 5868 5868 5867 5866 5865 5864 5863 5862 5860 5859 5858 5856 5854 5852
5837 5838 5839 5841 5842 5843 5845 5846 5848 5849 5851 5852 5853 5855 5856 5858 5859 5860 5861 5862 5863 5864 5865 5865 5866 5866 5866 5866 5866 5866 5866 5865 5864 5863 5862 5861 5860 5859 5857 5856 5854 5852 5850
5832 5833 5834 5835 5837 5838 5840 5841 5843 5844 5846 5847 5849 5851 5852 5854 5855 5856 5857 5859 5860 5861 5862 5862 5863 5863 5864 5864 5864 5864 5864 5863 5862 5861 5860 5859 5858 5856 5855 5854 5852 5850 5848
5826 5827 5828 5829 5831 5832 5834 5836 5837 5839 5840 5842 5844 5846 5847 5849 5850 5852 5853 5855 5856 5857 5858 5859 5860 5860 5861 5861 5861 5861 5861 5860 5860 5859 5858 5857 5856 5854 5853 5851 5849 5848 5846
5818 5820 5821 5823 5824 5826 5828 5829 5831 5833 5835 5836 5838 5840 5842 5844 5846 5847 5848 5850 5851 5853 5854 5855 5856 5857 5857 5858 5858 5858 5858 5858 5857 5856 5855 5854 5853 5852 5850 5849 5847 5845 5843
5809 5812 5813 5815 5817 5818 5821 5822 5825 5826 5828 5830 5832 5834 5836 5838 5840 5842 5843 5845 5847 5848 5850 5851 5852 5853 5854 5854 5855 5855 5855 5854 5854 5853 5852 5851 5850 5849 5847 5846 5844 5842 5840
5800 5802 5805 5807 5809 5810 5812 5815 5817 5819 5821 5824 5826 5828 5830 5832 5834 5836 5838 5840 5841 5843 5845 5846 5848 5849 5850 5850 5851 5851 5851 5851 5850 5850 5849 5848 5847 5846 5844 5843 5841 5839 5837
5790 5793 5795 5797 5800 5801 5803 5805 5808 5811 5813 5816 5818 5821 5823 5825 5827 5829 5831 5834 5836 5837 5839 5841 5843 5844 5845 5846 5847 5847 5847 5847 5847 5846 5845 5845 5843 5842 5841 5839 5838 5836 5834
5780 5782 5784 5786 5789 5791 5793 5795 5798 5801 5804 5807 5810 5812 5815 5817 5820 5822 5825 5827 5830 5832 5834 5835 5837 5839 5840 5841 5842 5843 5843 5843 5843 5842 5842 5841 5840 5839 5837 5836 5834 5832 5830
5768 5770 5772 5774 5777 5780 5783 5785 5788 5791 5794 5797 5800 5804 5806 5809 5812 5815 5817 5820 5823 5825 5827 5829 5831 5833 5835 5836 5837 5838 5838 5838 5839 5838 5838 5837 5836 5835 5833 5832 5830 5829 5827
5754 5756 5758 5761 5764 5767 5771 5773 5776 5780 5783 5787 5790 5794 5797 5800 5803 5806 5809 5812 5815 5818 5821 5823 5825 5827 5829 5830 5832 5833 5833 5834 5834 5834 5833 5833 5832 5831 5829 5828 5826 5824 5822
5740 5742 5744 5746 5750 5753 5757 5760 5764 5768 5772 5776 5779 5783 5787 5790 5794 5797 5801 5804 5807 5811 5814 5816 5818 5821 5822 5824 5826 5827 5828 5828 5829 5829 5829 5828 5827 5826 5825 5824 5822 5820 5818
5724 5727 5730 5732 5735 5738 5742 5746 5751 5755 5759 5764 5768 5772 5776 5780 5784 5788 5792 5795 5799 5802 5806 5809 5811 5813 5816 5818 5819 5821 5822 5823 5823 5824 5824 5823 5823 5822 5821 5819 5817 5815 5813
5708 5711 5714 5716 5720 5723 5727 5732 5736 5741 5746 5750 5755 5760 5764 5769 5774 5778 5782 5785 5790 5794 5797 5801 5803 5806 5809 5811 5813 5815 5816 5817 5818 5818 5818 5818 5818 5817 5816 5814 5812 5811 5809
5692 5694 5697 5701 5705 5708 5712 5717 5721 5726 5732 5737 5742 5747 5752 5757 5763 5768 5772 5776 5780 5784 5788 5792 5795 5798 5801 5804 5806 5808 5809 5811 5811 5812 5813 5812 5812 5811 5811 5809 5807 5805 5804
5675 5677 5680 5684 5688 5692 5696 5701 5705 5711 5717 5723 5728 5734 5739 5745 5751 5756 5761 5766 5770 5774 5779 5783 5786 5790 5793 5796 5798 5800 5802 5804 5805 5806 5807 5807 5806 5806 5805 5804 5802 5800 5798
5658 5660 5663 5665 5670 5675 5679 5684 5689 5695 5701 5708 5714 5720 5726 5732 5738 5744 5750 5755 5759 5764 5769 5773 5778 5781 5785 5788 5791 5793 5795 5797 5798 5799 5800 5801 5800 5800 5799 5798 5796 5794 5792
5642 5643 5646 5648 5652 5657 5662 5667 5673 5678 5685 5692 5699 5706 5713 5719 5726 5732 5739 5744 5748 5753 5759 5764 5768 5773 5776 5780 5782 5785 5788 5790 5791 5793 5794 5794 5794 5794 5793 5792 5790 5788 5786
5627 5627 5630 5632 5636 5640 5645 5651 5657 5663 5670 5677 5684 5692 5698 5706 5713 5720 5726 5732 5738 5743 5749 5755 5759 5763 5767 5771 5774 5777 5780 5782 5784 5786 5787 5787 5787 5787 5786 5785 5784 5782 5780
5611 5612 5614 5617 5620 5624 5629 5635 5641 5647 5654 5662 5669 5676 5684 5692 5699 5707 5714 5721 5727 5732 5738 5744 5749 5753 5758 5762 5766 5769 5771 5774 5776 5779 5780 5780 5780 5780 5779 5778 5777 5775 5773
5597 5598 5599 5602 5606 5610 5614 5620 5626 5631 5638 5645 5653 5661 5670 5678 5685 5693 5701 5709 5715 5721 5727 5733 5739 5744 5749 5753 5757 5761 5764 5767 5769 5771 5772 5773 5773 5773 5772 5771 5770 5768 5766
5584 5584 5586 5589 5592 5596 5600 5606 5611 5617 5624 5631 5640 5648 5656 5664 5673 5680 5688 5696 5703 5711 5716 5722 5729 5734 5739 5744 5748 5752 5756 5759 5761 5763 5765 5765 5766 5765 5765 5764 5763 5761 5759
5571 5572 5574 5576 5579 5583 5588 5593 5598 5603 5611 5618 5625 5633 5642 5650 5660 5668 5676 5684 5692 5699 5706 5712 5718 5724 5729 5735 5739 5743 5746 5750 5753 5755 5757 5758 5758 5758 5757 5757 5755 5754 5752
5561 5561 5563 5564 5567 5571 5576 5580 5585 5591 5598 5604 5612 5620 5629 5637 5647 5655 5664 5672 5680 5688 5695 5702 5708 5714 5719 5725 5729 5733 5737 5741 5744 5747 5749 5750 5750 5750 5750 5749 5748 5746 5744